Regional Weather Roundup
Issued by NWS Charleston, SC

Home | Current Version | Previous Version | Text Only | Print | Product List | Glossary On
Versions: 1 2 3 4 5 6 7 8 9 10 11 12 13 14 15 16 17 18 19 20 21 22 23 24 25 26 27 28 29 30 31 32 33 34 35 36 37 38 39 40 41 42 43 44 45 46 47 48 49 50
000
ASUS42 KCHS 200626
RWRCHS

Regional Weather Roundup
National Weather Service Charleston SC
200 AM EDT SUN JUN 20 2021

NOTE: "fair" indicates few or no clouds below 12,000 feet with no
significant weather and/or obstructions to visibility.

Not all stations are quality controlled. Use data with caution,
especially dewpoint observations.

SCZ027-030-031-034>040-042>050-200700-
...Southeast South Carolina...

CITY           SKY/WX    TMP DP  RH WIND       PRES   REMARKS
N Charleston   LGT RAIN  77  75  93 S6        29.99S
6HR MIN TEMP:  75; 6HR MAX TEMP:  77; 6HR PCP: TRACE;

Waterfront Prk   N/A     82  78  88 S9        29.84S HX  91
Mount Pleasant LGT RAIN  79  79 100 CALM      29.99S
Johns Island   DRIZZLE   81  79  94 S9        29.99F
Pinopolis        N/A     75  73  94 CALM      29.93R
Moncks Corner  LGT RAIN  72  72 100 CALM      29.99F
Summerville    LGT RAIN  75  75 100 CALM      29.97F FOG
Beaufort MCAS  MOCLDY    81  76  84 S8        29.97F
6HR MIN TEMP:  79; 6HR MAX TEMP:  81; 6HR PCP:  0.02;

Beaufort Arpt  FAIR      79  72  78 S12G17    29.97F
Hilton Head Is CLOUDY    79  75  89 VRB7G16   29.98F
Walterboro     LGT RAIN  73  73 100 E3        29.98F
Allendale      CLOUDY    75  75 100 S6        29.94F

...Southern Midlands and Pee Dee...

CITY           SKY/WX    TMP DP  RH WIND       PRES   REMARKS
Georgetown     MOCLDY    73  70  88 CALM      30.01R
Kingstree      LGT RAIN  72  72 100 CALM      30.00S
Orangeburg     LGT RAIN  73  73 100 E5        29.98F
6HR MIN TEMP:  73; 6HR MAX TEMP:  75; 6HR PCP:  0.10;

Barnwell       CLOUDY    75  73  94 SE7         N/A
Aiken          LGT RAIN  72  71  97 SE9       29.96F
Manning        LGT RAIN  72  72 100 CALM      30.00S
Columbia       RAIN      72  70  93 E9        29.96F
6HR MIN TEMP:  72; 6HR MAX TEMP:  75; 6HR PCP:  0.32;

Sumter         LGT RAIN  73  71  95 S5        30.00S FOG
6HR MIN TEMP:  73; 6HR MAX TEMP:  76; 6HR PCP:  0.03;

Florence       CLOUDY    73  69  87 SW3       29.99F
6HR MIN TEMP:  73; 6HR MAX TEMP:  80; 6HR PCP:  0.01;

Myrtle Beach   CLOUDY    76  70  82 CALM      30.00F
N Myrtle Beach CLOUDY    76  68  76 SW5       29.99F
6HR MIN TEMP:  76; 6HR MAX TEMP:  81; 6HR PCP: TRACE;


$$

GAZ063-065-086>088-099>101-113>116-118-119-134>141-150-200700-
...Southeast Georgia...

CITY           SKY/WX    TMP DP  RH WIND       PRES   REMARKS
Savannah Arpt  MOCLDY    78  75  90 S13       29.97F
6HR MIN TEMP:  78; 6HR MAX TEMP:  80; 6HR PCP: TRACE;

Hunter AAF     CLOUDY    79  74  84 S8        29.95F
6HR MIN TEMP:  79; 6HR MAX TEMP:  81; 6HR PCP: TRACE;

Fort Stewart   CLOUDY    78  74  87 S7        29.95F
6HR MIN TEMP:  78; 6HR MAX TEMP:  79; 6HR PCP: TRACE;

Statesboro     CLOUDY    75  73  91 S6        29.94F
Sylvania       CLOUDY    77  74  93 S6        29.95F
Claxton        CLOUDY    78  76  92 S5        29.95F
Millen         CLOUDY    75  74  95 S10       29.93F
Metter         CLOUDY    75 N/A N/A SE3       29.93F
Reidsville     CLOUDY    76  74  96 S8        29.94F

...CSRA, Central and far Southeast Georgia...

CITY           SKY/WX    TMP DP  RH WIND       PRES   REMARKS
Thomson        CLOUDY    73 N/A N/A S7        29.90F
Augusta-Bush   LGT RAIN  75  73  93 S12       29.92F
6HR MIN TEMP:  74; 6HR MAX TEMP:  76; 6HR PCP:  0.60;

Augusta-Daniel CLOUDY    75  72  90 SE7       29.94F
Swainsboro     CLOUDY    77  72  83 S7        29.93F
Vidalia        MOCLDY    77  73  88 S7        29.94F
Eastman        MOCLDY    75  73  93 S13       29.91F
Hazlehurst       N/A     76  74  92 S7        29.93F
Alma           CLOUDY    77  74  90 S9        29.96F
6HR MIN TEMP:  77; 6HR MAX TEMP:  78; 6HR PCP: TRACE;

Waycross       CLOUDY    79  78  96 S7        29.97F
Jesup          CLOUDY    79  72  78 CALM      30.00F
Baxley         CLOUDY    77  75  94 S6        29.95F
Brunswick      CLOUDY    80  74  82 S13       29.98F
Saint Simons   CLOUDY    80  77  90 S7        29.98F
6HR MIN TEMP:  80; 6HR MAX TEMP:  82; 6HR PCP:  0.05;


$$

SCZ027-028-034-036>038-045-046-048>050-GAZ119-141-200700-
...Lake and Supplemental Coastal Observations...

STATION/POSITION TIME  TEMP    WIND        PRES    WAVE   SWELL
                       AIR SEA DIR/SP/G            HT/PER HT/PER/DIR
                 (UTC) (F)     (DEG/KT/KT) (MB)    (FT/S) (FT/S/D)
Winyah Bay       0545   76      50/  3     1015.0F
Lake Murray      0620   74     150/  4/  7   N/A
Chrlstn Harbor   0542   81 82  200/  8/ 12 1016.0S
ACE Basin NERRS  0545   81     160/  1     1016.0S
Fort Pulaski     0542   81 82              1015.6F
Sapelo Island    0600   80     190/  9     1015.0

$$

ANZ835-935-AMZ111-154-330-350-352-354-370-450-454-472-200700-
...C-MAN and Buoy Observations...

STATION/POSITION TIME  TEMP    WIND        PRES    WAVE   SWELL
                       AIR SEA DIR/SP/G            HT/PER HT/PER/DIR
                 (UTC) (F)     (DEG/KT/KT) (MB)    (FT/S) (FT/S/D)
Buoy 41004       NOT AVBL
Buoy 41008       0550   80 80  190/ 16/ 19 1015.0F   4/ 4   2/130/ 8
Folly Beach CMAN 0600   81     180/ 15/ 17 1016.0F
Capers Nearshore NOT AVBL
Fripp Nearshore  0608   81 81  180/ 16/ 23 1014.4F


STATION/POSITION TIME  TEMP    WIND        PRES    WAVE   SWELL
                       AIR SEA DIR/SP/G            HT/PER HT/PER/DIR
                 (UTC) (F)     (DEG/KT/KT) (MB)    (FT/S) (FT/S/D)
5E St. Marys GA  0600   80 80                N/A     4/ 5
Frying Pan Buoy  0600   79     230/ 10/ 12 1015.3
Buoy 41025       NOT AVBL
Cape Lookout NC  0600   79     250/ 10/ 16 1015.1R
Buoy 41002       0600   79     210/ 14/ 16 1017.2
Buoy 41010       0600   81     180/ 14/ 17 1018.6
St Augustine FL  0600   79 82  200/  6/  8 1016.5F


$$



USA.gov is the U.S. government's official web portal to all federal, state and local government web resources and services.